Regional Weather Roundup
Issued by NWS Newport/Morehead, NC

Current Version | Previous Version | Graphics & Text | Print | Product List | Glossary On
Versions: 1 2 3 4 5 6 7 8 9 10 11 12 13 14 15 16 17 18 19 20 21 22 23 24 25 26 27 28 29 30 31 32 33 34 35 36 37 38 39 40 41 42 43 44 45 46 47 48 49 50
119 ASUS42 KMHX 300513 RWRMHX WEATHER ROUNDUP FOR EASTERN NORTH CAROLINA NATIONAL WEATHER SERVICE NEWPORT/MOREHEAD CITY NC 100 AM EDT MON MAY 30 2016 NOTE: "FAIR" INDICATES FEW OR NO CLOUDS BELOW 12,000 FEET WITH NO SIGNIFICANT WEATHER AND/OR OBSTRUCTIONS TO VISIBILITY NCZ015>017-031-032-045>047-102-103-300600- NORTH COAST CITY SKY/WX TMP DP RH WIND PRES REMARKS EDENTON CLOUDY N/A N/A N/A SE5 30.04F ELIZABETH CITY LGT RAIN 73 71 93 SE5 30.04F KITTY HAWK DRIZZLE 74 72 94 SE6 30.04F MANTEO NOT AVBL $$ NCZ045>047-081-094-103-104-300600- CENTRAL COAST CITY SKY/WX TMP DP RH WIND PRES REMARKS FRISCO CLOUDY 76 71 85 S12 30.05S $$ NCZ095-097-098-100-101-300600- SOUTHERN COAST CITY SKY/WX TMP DP RH WIND PRES REMARKS BEAUFORT PTCLDY 75 73 93 SE6 30.02F CEDAR ISLAND NOT AVBL JACKSONVILLE PTCLDY 75 72 90 SE5 30.00F PINEY ISLAND NOT AVBL WILMINGTON MOCLDY 74 72 93 E3 29.99S $$ NCZ011>013-027>030-043-044-078>080-089-090>093-098-300600- COASTAL PLAIN CITY SKY/WX TMP DP RH WIND PRES REMARKS AHOSKIE PTCLDY 71 70 98 SE3 30.04S CLINTON PTCLDY 72 72 100 CALM 30.01S ELIZABETHTOWN CLOUDY 72 72 100 CALM 29.99S GOLDSBORO NOT AVBL GREENVILLE CLOUDY 73 72 94 CALM 30.04F HAVELOCK CLOUDY 73 71 93 SE6 30.03S KENANSVILLE CLOUDY 72 72 99 CALM 30.02S FOG KINSTON PTCLDY 74 72 94 SE3 30.02F NEW BERN MOCLDY 74 71 91 SE5 30.03S RICHLANDS PTCLDY 73 72 96 E5 30.01F ROCKY MOUNT MOCLDY 71 70 96 CALM 30.02F WASHINGTON CLOUDY 73 71 92 SE5 30.03S WHITEVILLE CLOUDY 72 70 95 CALM 29.97F $$ AMZ130-135-150-152-154-156-158-170-250-252-270-ANZ085-086-088-633-658-670-300600- MARINE OBSERVATIONS STATION/POSITION TIME TEMP WIND PRES WAVE SWELL AIR SEA DIR/SP/G HT/PER HT/PER (UTC) (F) (DEG/KT/KT) (MB) (FT/S) (FT/S) CHESAPEAKE LIGHT 0500 71 150/ 18/ 19 1017.6 64 E VA BEACH 0450 68 64 170/ 10/ 10 1017.9 4/ 6 3/ 6 DUCK 0400 68 59 140/ 8/ 8 1017.1 2 E DUCK 0411 63 N/A 3/ 7 OREGON INLET 0400 74 80 150/ 9/ 15 1017.7 13E OREGON INLT 0500 68 N/A 5/ 7 3/ 7 HATTERAS CG 0400 76 77 150/ 6/ 9 1017.2 DIAMOND BUOY 0450 77 81 160/ 16/ 21 1017.2 5/ 7 2/ 8 CAPE LOOKOUT 0500 75 140/ 10/ 11 1016.4 BEAUFORT LAB 0400 76 76 150/ 4/ 5 1016.0 30 SE NEW RVR IN 0425 75 N/A 6/ 8 27 SE WRIGHTSVLE 0408 78 76 180/ 14/ 19 1015.5 5 SE WRIGHTSVLE 0408 76 76 170/ 8/ 12 1016.2 225 S CAPE HAT 0450 75 76 130/ 14/ 16 1017.8 4/ 7 3/ 7 41 SE CHARLESTON 0450 74 77 200/ 19/ 23 1012.6 7/ 7 2/14 $$

USA.gov is the U.S. government's official web portal to all federal, state and local government web resources and services.